TimeEST,TemperatureF,Dew PointF,Humidity,Sea Level PressureIn,VisibilityMPH,Wind Direction,Wind SpeedMPH,Gust SpeedMPH,PrecipitationIn,Events,Conditions,WindDirDegrees,DateUTC
1:53 AM,28.0,23.0,81,30.30,7.0,Calm,Calm,-,N/A,,Clear,0,2012-12-14 06:53:00
2:53 AM,25.0,21.9,88,30.29,5.0,Calm,Calm,-,N/A,,Clear,0,2012-12-14 07:53:00
3:23 AM,24.8,21.2,86,30.28,2.5,Calm,Calm,-,N/A,,Clear,0,2012-12-14 08:23:00
3:33 AM,24.8,21.2,86,30.28,5.0,Calm,Calm,-,N/A,,Clear,0,2012-12-14 08:33:00
3:53 AM,25.0,21.9,88,30.27,3.0,Calm,Calm,-,N/A,,Clear,0,2012-12-14 08:53:00
4:37 AM,24.8,21.2,86,30.25,2.0,Calm,Calm,-,N/A,,Clear,0,2012-12-14 09:37:00
4:53 AM,25.0,21.9,88,30.26,2.0,Calm,Calm,-,N/A,,Clear,0,2012-12-14 09:53:00
5:05 AM,24.8,21.2,86,30.26,3.0,Calm,Calm,-,N/A,,Clear,0,2012-12-14 10:05:00
5:11 AM,24.8,21.2,86,30.26,1.8,Calm,Calm,-,N/A,,Clear,0,2012-12-14 10:11:00
5:24 AM,24.8,21.2,86,30.26,3.0,Calm,Calm,-,N/A,,Clear,0,2012-12-14 10:24:00
5:53 AM,25.0,23.0,92,30.25,5.0,Calm,Calm,-,N/A,,Clear,0,2012-12-14 10:53:00
6:53 AM,28.0,24.1,85,30.24,8.0,South,5.8,-,N/A,,Clear,180,2012-12-14 11:53:00
7:53 AM,28.9,24.1,82,30.23,8.0,South,4.6,-,N/A,,Clear,170,2012-12-14 12:53:00
8:53 AM,35.1,26.1,70,30.23,9.0,Calm,Calm,-,N/A,,Clear,0,2012-12-14 13:53:00
9:53 AM,37.9,26.1,62,30.22,10.0,South,4.6,-,N/A,,Clear,170,2012-12-14 14:53:00
10:53 AM,41.0,24.1,51,30.19,10.0,SSW,5.8,-,N/A,,Clear,210,2012-12-14 15:53:00
11:53 AM,44.1,24.1,45,30.16,10.0,South,6.9,-,N/A,,Clear,180,2012-12-14 16:53:00
12:53 PM,46.0,23.0,40,30.12,10.0,SSW,6.9,-,N/A,,Clear,200,2012-12-14 17:53:00
1:53 PM,46.9,21.9,37,30.11,10.0,SSW,4.6,-,N/A,,Clear,200,2012-12-14 18:53:00
2:53 PM,48.0,21.0,34,30.12,10.0,WSW,4.6,-,N/A,,Clear,250,2012-12-14 19:53:00
3:53 PM,46.9,21.9,37,30.13,10.0,Variable,5.8,-,N/A,,Clear,0,2012-12-14 20:53:00
4:53 PM,46.0,19.0,34,30.14,10.0,WNW,5.8,-,N/A,,Clear,300,2012-12-14 21:53:00
5:53 PM,44.1,19.9,38,30.16,10.0,WNW,3.5,-,N/A,,Clear,300,2012-12-14 22:53:00
6:53 PM,43.0,23.0,45,30.18,10.0,NW,5.8,-,N/A,,Clear,310,2012-12-14 23:53:00
7:53 PM,41.0,25.0,53,30.19,10.0,NNW,4.6,-,N/A,,Clear,330,2012-12-15 00:53:00
8:53 PM,41.0,26.1,55,30.20,10.0,Calm,Calm,-,N/A,,Clear,0,2012-12-15 01:53:00
9:53 PM,35.1,26.1,70,30.19,10.0,Calm,Calm,-,N/A,,Clear,0,2012-12-15 02:53:00
10:53 PM,36.0,26.1,67,30.19,10.0,Calm,Calm,-,N/A,,Clear,0,2012-12-15 03:53:00
11:53 PM,30.9,26.1,82,30.20,10.0,Calm,Calm,-,N/A,,Clear,0,2012-12-15 04:53:00